Tracking 29892 objects as of 21-Nov-2024
HD Live streaming from Space Station
objects crossing your sky now

STARLINK-2140

Track STARLINK-2140 now!
10-day predictions
STARLINK-2140 is classified as:


NORAD ID: 47730
Int'l Code: 2021-017J
Perigee: 553.6 km
Apogee: 555.0 km
Inclination: 53.1 °
Period: 95.6 minutes
Semi major axis: 6925 km
RCS: Unknown
Launch date: March 4, 2021
Source: United States (US)
Launch site: AIR FORCE EASTERN TEST RANGE (AFETR)
Your satellite tracking list
Your tracking list is empty




NASA's NSSDC Master Catalog

Two Line Element Set (TLE):
1 47730U 21017J   24325.61299089 -.00000166  00000-0  77102-5 0  9998
2 47730  53.0521 184.8366 0001010  92.3405 267.7700 15.06405937205578
Source of the keplerian elements: AFSPC